| time (UTC) | temp C | wind direction | speed KPH | gust KPH | rain 1hr cm | rain 24hr cm | rain mn cm | humidity % | barometer mb |
| 20260508114504 | 16 | 275 | 0.0 | 0.0 | 0.00 | 0.00 | 0.00 | 21 | 102.0 |
| 20260508113004 | 16 | 322 | 0.0 | 0.0 | 0.00 | 0.00 | 0.00 | 21 | 102.0 |
| 20260508111503 | 15 | 339 | 0.0 | 0.0 | 0.00 | 0.00 | 0.00 | 21 | 102.0 |
| 20260508110003 | 15 | 341 | 0.0 | 0.0 | 0.00 | 0.00 | 0.00 | 22 | 102.0 |
| 20260508104503 | 15 | 344 | 0.0 | 0.0 | 0.00 | 0.00 | 0.00 | 22 | 102.0 |
| 20260508103003 | 15 | 340 | 0.0 | 0.0 | 0.00 | 0.00 | 0.00 | 23 | 102.0 |
| 20260508101503 | 14 | 351 | 0.0 | 0.0 | 0.00 | 0.00 | 0.00 | 24 | 102.0 |
| 20260508100003 | 14 | 355 | 0.0 | 0.0 | 0.00 | 0.00 | 0.00 | 26 | 102.0 |
| 20260508094503 | 14 | 335 | 0.0 | 0.0 | 0.00 | 0.00 | 0.00 | 27 | 102.0 |
| 20260508093002 | 14 | 301 | 0.0 | 0.0 | 0.00 | 0.00 | 0.00 | 28 | 102.0 |
| 20260508091502 | 13 | 349 | 0.0 | 0.0 | 0.00 | 0.00 | 0.00 | 29 | 102.0 |
| 20260508090002 | 13 | 357 | 0.0 | 0.0 | 0.00 | 0.00 | 0.00 | 28 | 102.0 |
| 20260508084502 | 13 | 18 | 0.0 | 0.0 | 0.00 | 0.00 | 0.00 | 29 | 102.0 |
| 20260508083002 | 12 | 92 | 0.0 | 0.0 | 0.00 | 0.00 | 0.00 | 29 | 102.0 |
| 20260508081502 | 12 | 328 | 0.0 | 0.0 | 0.00 | 0.00 | 0.00 | 30 | 102.0 |
| 20260508080002 | 12 | 188 | 0.0 | 0.0 | 0.00 | 0.00 | 0.00 | 29 | 102.0 |
| 20260508074501 | 12 | 353 | 0.0 | 0.0 | 0.00 | 0.00 | 0.00 | 31 | 102.0 |
| 20260508073001 | 12 | 11 | 0.0 | 0.0 | 0.00 | 0.00 | 0.00 | 32 | 102.0 |
| 20260508071501 | 12 | 248 | 0.0 | 0.0 | 0.00 | 0.00 | 0.00 | 33 | 102.0 |
| 20260508070001 | 11 | 313 | 0.0 | 0.0 | 0.00 | 0.00 | 0.00 | 36 | 102.0 |
| 20260508064501 | 10 | 14 | 0.0 | 0.0 | 0.00 | 0.00 | 0.00 | 36 | 102.0 |
| 20260508063000 | 10 | 1 | 0.0 | 0.0 | 0.00 | 0.00 | 0.00 | 38 | 102.0 |
| 20260508061500 | 8 | 203 | 0.0 | 0.0 | 0.00 | 0.00 | 0.00 | 42 | 102.0 |
| 20260508060000 | 8 | 321 | 0.0 | 0.0 | 0.00 | 0.00 | 0.00 | 43 | 102.0 |
| 20260508054505 | 7 | 269 | 0.0 | 0.0 | 0.00 | 0.00 | 0.00 | 44 | 102.0 |
| 20260508053005 | 7 | 10 | 0.0 | 0.0 | 0.00 | 0.00 | 0.00 | 50 | 102.0 |
| 20260508051504 | 6 | 91 | 0.0 | 0.0 | 0.00 | 0.00 | 0.00 | 52 | 102.0 |
| 20260508050004 | 6 | 310 | 0.0 | 0.0 | 0.00 | 0.00 | 0.00 | 56 | 102.0 |
| 20260508044504 | 5 | 55 | 0.0 | 0.0 | 0.00 | 0.00 | 0.00 | 58 | 102.0 |
| 20260508043004 | 2 | 219 | 0.0 | 0.0 | 0.00 | 0.00 | 0.00 | 65 | 102.0 |
| 20260508041504 | 2 | 144 | 0.0 | 0.0 | 0.00 | 0.00 | 0.00 | 69 | 102.0 |
| 20260508040003 | 1 | 191 | 0.0 | 0.0 | 0.00 | 0.00 | 0.00 | 70 | 102.0 |
| 20260508034502 | 1 | 129 | 0.0 | 0.0 | 0.00 | 0.00 | 0.00 | 68 | 102.0 |
| 20260508033001 | 1 | 142 | 0.0 | 0.0 | 0.00 | 0.00 | 0.00 | 69 | 102.0 |
| 20260508031500 | 1 | 155 | 0.0 | 0.0 | 0.00 | 0.00 | 0.00 | 69 | 102.0 |
| 20260508030005 | 1 | 157 | 0.0 | 0.0 | 0.00 | 0.00 | 0.00 | 67 | 102.0 |
| 20260508024504 | 1 | 129 | 0.0 | 0.0 | 0.00 | 0.00 | 0.00 | 70 | 102.0 |
| 20260508023003 | 1 | 34 | 0.0 | 0.0 | 0.00 | 0.00 | 0.00 | 68 | 102.0 |
| 20260508021502 | 2 | 124 | 0.0 | 0.0 | 0.00 | 0.00 | 0.00 | 67 | 102.0 |
| 20260508020001 | 2 | 66 | 0.0 | 0.0 | 0.00 | 0.00 | 0.00 | 69 | 102.0 |
| 20260508014501 | 2 | 50 | 0.0 | 0.0 | 0.00 | 0.00 | 0.00 | 66 | 102.0 |
| 20260508013005 | 3 | 142 | 0.0 | 0.0 | 0.00 | 0.00 | 0.00 | 64 | 102.0 |
| 20260508011504 | 3 | 129 | 0.0 | 0.0 | 0.00 | 0.00 | 0.00 | 63 | 102.0 |
| 20260508010003 | 3 | 50 | 0.0 | 0.0 | 0.00 | 0.00 | 0.00 | 61 | 102.0 |
| 20260508004502 | 3 | 129 | 0.0 | 0.0 | 0.00 | 0.00 | 0.00 | 59 | 102.0 |
| 20260508003002 | 3 | 358 | 0.0 | 0.0 | 0.00 | 0.00 | 0.00 | 56 | 102.0 |
| 20260508001501 | 3 | 348 | 0.0 | 0.0 | 0.00 | 0.00 | 0.00 | 59 | 102.0 |
| 20260508000001 | 3 | 91 | 0.0 | 0.0 | 0.00 | 0.00 | 0.00 | 59 | 102.0 |
| 20260507234501 | 3 | 169 | 0.0 | 0.0 | 0.00 | 0.00 | 0.00 | 59 | 102.0 |
| 20260507233000 | 3 | 304 | 0.0 | 0.0 | 0.00 | 0.00 | 0.00 | 61 | 102.0 |
| 20260507231504 | 3 | 37 | 0.0 | 0.0 | 0.00 | 0.00 | 0.00 | 65 | 102.0 |
| 20260507230004 | 3 | 142 | 0.0 | 0.0 | 0.00 | 0.00 | 0.00 | 62 | 102.0 |
| 20260507224504 | 3 | 103 | 0.0 | 0.0 | 0.00 | 0.00 | 0.00 | 60 | 102.0 |
| 20260507223002 | 3 | 139 | 0.0 | 0.0 | 0.00 | 0.00 | 0.00 | 61 | 102.0 |
| 20260507221502 | 3 | 103 | 0.0 | 0.0 | 0.00 | 0.00 | 0.00 | 61 | 102.0 |
| 20260507220001 | 3 | 135 | 0.0 | 0.0 | 0.00 | 0.00 | 0.00 | 58 | 102.0 |
| 20260507214505 | 3 | 224 | 0.0 | 0.0 | 0.00 | 0.00 | 0.00 | 57 | 102.0 |
| 20260507213004 | 3 | 353 | 0.0 | 0.0 | 0.00 | 0.00 | 0.00 | 56 | 102.0 |
| 20260507211504 | 3 | 55 | 0.0 | 0.0 | 0.00 | 0.00 | 0.00 | 56 | 102.0 |
| 20260507210003 | 3 | 113 | 0.0 | 0.0 | 0.00 | 0.00 | 0.00 | 56 | 102.0 |
| 20260507204502 | 3 | 107 | 0.0 | 0.0 | 0.00 | 0.00 | 0.00 | 53 | 102.0 |
| 20260507203002 | 3 | 147 | 0.0 | 0.0 | 0.00 | 0.00 | 0.00 | 52 | 102.0 |
| 20260507201501 | 3 | 240 | 0.0 | 0.0 | 0.00 | 0.00 | 0.00 | 53 | 102.0 |
| 20260507200000 | 3 | 338 | 0.0 | 0.0 | 0.00 | 0.00 | 0.00 | 52 | 102.0 |
| 20260507194504 | 5 | 142 | 0.0 | 0.0 | 0.00 | 0.00 | 0.00 | 48 | 102.0 |
| 20260507193003 | 5 | 217 | 0.0 | 0.0 | 0.00 | 0.00 | 0.00 | 44 | 102.0 |
| 20260507191503 | 6 | 37 | 0.0 | 0.0 | 0.00 | 0.00 | 0.00 | 41 | 102.0 |
| 20260507190003 | 7 | 142 | 0.0 | 0.0 | 0.00 | 0.00 | 0.00 | 41 | 102.0 |
| 20260507184501 | 7 | 22 | 0.0 | 0.0 | 0.00 | 0.00 | 0.00 | 36 | 102.0 |
| 20260507183000 | 8 | 117 | 0.0 | 0.0 | 0.00 | 0.00 | 0.00 | 34 | 101.0 |
| 20260507181504 | 8 | 50 | 0.0 | 0.0 | 0.00 | 0.00 | 0.00 | 31 | 101.0 |
| 20260507180004 | 10 | 217 | 0.0 | 0.0 | 0.00 | 0.00 | 0.00 | 28 | 101.0 |
| 20260507174504 | 10 | 217 | 0.0 | 0.0 | 0.00 | 0.00 | 0.00 | 27 | 101.0 |
| 20260507173004 | 11 | 217 | 0.0 | 0.0 | 0.00 | 0.00 | 0.00 | 28 | 101.0 |
| 20260507171503 | 11 | 229 | 0.0 | 0.0 | 0.00 | 0.00 | 0.00 | 27 | 101.0 |
| 20260507170003 | 11 | 230 | 0.0 | 0.0 | 0.00 | 0.00 | 0.00 | 27 | 101.0 |
| 20260507164503 | 11 | 214 | 0.0 | 0.0 | 0.00 | 0.00 | 0.00 | 27 | 101.0 |
| 20260507163003 | 11 | 199 | 0.0 | 0.0 | 0.00 | 0.00 | 0.00 | 26 | 101.0 |
| 20260507161503 | 11 | 249 | 0.0 | 0.0 | 0.00 | 0.00 | 0.00 | 26 | 101.0 |
| 20260507160002 | 11 | 210 | 0.0 | 0.0 | 0.00 | 0.00 | 0.00 | 25 | 101.0 |
| 20260507154502 | 12 | 196 | 0.0 | 0.0 | 0.00 | 0.00 | 0.00 | 24 | 101.0 |
| 20260507153002 | 12 | 229 | 0.0 | 0.0 | 0.00 | 0.00 | 0.00 | 25 | 101.0 |
| 20260507151502 | 12 | 278 | 0.0 | 0.0 | 0.00 | 0.00 | 0.00 | 23 | 101.0 |
| 20260507150002 | 13 | 241 | 0.0 | 0.0 | 0.00 | 0.00 | 0.00 | 21 | 101.0 |
| 20260507144501 | 13 | 253 | 0.0 | 0.0 | 0.00 | 0.00 | 0.00 | 20 | 101.0 |
| 20260507143001 | 13 | 111 | 0.0 | 0.0 | 0.00 | 0.00 | 0.00 | 21 | 101.0 |
| 20260507141501 | 13 | 271 | 0.0 | 0.0 | 0.00 | 0.00 | 0.00 | 23 | 101.0 |
| 20260507140001 | 13 | 198 | 0.0 | 0.0 | 0.00 | 0.00 | 0.00 | 21 | 101.0 |
| 20260507134501 | 13 | 234 | 0.0 | 0.0 | 0.00 | 0.00 | 0.00 | 21 | 101.0 |
| 20260507133000 | 13 | 218 | 0.0 | 0.0 | 0.00 | 0.00 | 0.00 | 20 | 101.0 |
| 20260507131500 | 13 | 210 | 0.0 | 0.0 | 0.00 | 0.00 | 0.00 | 20 | 101.0 |
| 20260507130005 | 14 | 209 | 0.0 | 0.0 | 0.00 | 0.00 | 0.00 | 22 | 101.0 |
| 20260507124505 | 14 | 217 | 0.0 | 0.0 | 0.00 | 0.00 | 0.00 | 22 | 101.0 |
| 20260507123005 | 14 | 219 | 0.0 | 0.0 | 0.00 | 0.00 | 0.00 | 23 | 101.0 |
| 20260507121505 | 14 | 215 | 0.0 | 0.0 | 0.00 | 0.00 | 0.00 | 24 | 101.0 |
| 20260507120005 | 13 | 183 | 0.0 | 0.0 | 0.00 | 0.00 | 0.00 | 23 | 101.0 |